OPS 4682 DEB, 12102

Orbit data source: Space-Track

OPS 4682 DEB, 12102 is space debris in LEO originally from a launch on Sat, 03 Apr 1965 UTC launched from the Air Force Western Test Range (AFWTR). Debris objects in space refer to the collection of defunct objects orbiting the Earth. Examples of debris include non-operational satellites, rocket bodies, and fragments generated from explosions, collisions, or faulty payload assembly.

Loading next visibility...
Identifier
12102, 1965-027G
Orbit
LEO
Country
Flag of USUS
Related business
Manufacturer
Unknown
Mission
Spacecraft
Bus & Motor
Unknown
Mass
Unknown
Launch date (UTC)
1965-04-03 (61 years ago)
Launch vehicle
Unknown
Launch site
Air Force Western Test Range (AFWTR)
Object type
Payload
Rocket body
Debris
Shape & HBR
Unknown shape, 0.1 m
Radar Cross Section
Small (<0.1 m²)

Expand to show TLE details & history
Last TLE update: 3 days ago

TLE from 3 days ago
0 OPS 4682 DEB
1 12102U 65027G   25291.47139672 -.00000049  00000-0 -18968-3 0  9994
2 12102  90.2500   9.0475 0024176 256.4735 120.2109 12.98626366859366
Epoch: 2025-10-18T11:18Z
TLE epoch observation values (Epoch: 2025-10-18T11:18:48.676Z)
Latitude
16.90794°
Longitude
172.06713°
Altitude
1,279.082 km
Speed
7.213 km/s
True Right ascension
00h 35m 53s
True Declination
16° 49' 08"
Sunlit
Object was in full shadow at epoch
Visualization orbit readout
Latitude
Unknown
Longitude
Unknown
Altitude
Unknown
Speed
Unknown
Apparent Right ascension
Unknown
Apparent Declination
Unknown
Sunlit
N/A
Visualization observer readout
Local Sidereal Time
03:26:45
Azimuth
Unknown
Elevation
Unknown
Doppler factor
Unknown
Orbital elements
Apogee altitude
1,283.079 km
Perigee altitude
1,246.125 km
Semi-major axis
7,642.739 km
Eccentricity
0.00242
Inclination
90.25°
RAAN
9.0475°
Arg. of periapsis
256.4735°
True anomaly
120.44994°
Mean anomaly
120.2109°
Eccentric anomaly
120.33046°
Mean motion
3.2484 °/min
Orbital period
110.82 mins
BSTAR
-0.00018968
Loading maneuver chart data...
Computing Atmospheric mass density...
Loading historical data...
Loading historical data...
Loading historical data...
Loading historical data...
Loading historical data...
Loading historical data...
Loading historical data...

Documentation

Showing up to 5 results
|